Regional Weather Roundup
Issued by NWS Wilmington, NC

Home | Current Version | Previous Version | Text Only | Print | Product List | Glossary On
Versions: 1 2 3 4 5 6 7 8 9 10 11 12 13 14 15 16 17 18 19 20 21 22 23 24 25 26 27 28 29 30 31 32 33 34 35 36 37 38 39 40 41 42 43 44 45 46 47 48 49 50
000
ASUS42 KILM 301713
RWRILM
RWRILM
REGIONAL HOURLY WEATHER ROUNDUP
NATIONAL WEATHER SERVICE WILMINGTON NC
100 PM EDT SAT APR 30 2016

NOTE: "FAIR" INDICATES FEW OR NO CLOUDS BELOW 12,000 FEET WITH NO
SIGNIFICANT WEATHER AND/OR OBSTRUCTIONS TO VISIBILITY.

...............WFO WILMINGTON COUNTY WARNING AREA...............

......COASTAL NC AND SC COUNTIES......

CITY           SKY/WX    TMP DP  RH WIND       PRES   REMARKS
WILMINGTON     CLOUDY    67  59  75 NE9       30.12F
N MYRTLE BEACH MOSUNNY   73  63  70 E15G22    30.10S
MYRTLE BEACH   PTSUNNY   73  61  64 SE17      30.11F

......INLAND NC AND SC COUNTIES.......

CITY           SKY/WX    TMP DP  RH WIND       PRES   REMARKS
LUMBERTON      CLOUDY    73  62  68 E7        30.10F
ELIZABETHTOWN  CLOUDY    70  61  73 E7        30.11F
WHITEVILLE     CLOUDY    71  63  76 E9        30.10S HAZE
FLORENCE       PTSUNNY   77  66  68 SE8       30.07F
DARLINGTON     NOT AVBL
KINGSTREE      CLOUDY    81  64  57 SE8       30.05S
HARTSVILLE     FAIR     N/A N/A N/A SE6       30.06S
BENNETTSVILLE  PTSUNNY   77  64  65 E7        30.08S
CONWAY         NOT AVBL
GEORGETOWN     PTSUNNY   77  68  73 SE12      30.09S
MARION         PTSUNNY   77  64  65 SE7       30.08S

....................REST OF NORTH CAROLINA......................

.........EASTERN NC.........

CITY           SKY/WX    TMP DP  RH WIND       PRES   REMARKS
CAPE HATTERAS  CLOUDY    60  53  77 N8        30.15R
JACKSONVILLE   CLOUDY    69  58  67 E7        30.13F
MOREHEAD CITY  CLOUDY    64  57  78 NE9       30.14S
KENANSVILLE    CLOUDY    71  57  63 E3        30.13F
NEW BERN       CLOUDY    62  56  80 NE5       30.17R
ELIZABETH CITY CLOUDY    61  52  72 NE10      30.17S

.........CENTRAL NC.........

CITY           SKY/WX    TMP DP  RH WIND       PRES   REMARKS
RALEIGH DURHAM CLOUDY    63  57  81 E8        30.15F
ROCKY MOUNT    CLOUDY    60  56  86 NE9       30.17R
ROANOKE RAPIDS NOT AVBL
FAYETTEVILLE   CLOUDY    68  59  73 NE9       30.11S
HOFFMAN        PTSUNNY   69  61  75 E5        30.10S

.........WESTERN NC.........

CITY           SKY/WX    TMP DP  RH WIND       PRES   REMARKS
CHARLOTTE      PTSUNNY   76  61  59 VRB3      30.07F
GREENSBORO     DRIZZLE   61  59  93 E8        30.12F FOG
HICKORY        NOT AVBL
BOONE          NOT AVBL
ASHEVILLE      NOT AVBL

.....................REST OF SOUTH CAROLINA.....................

.........EASTERN SC.........

CITY           SKY/WX    TMP DP  RH WIND       PRES   REMARKS
CHARLESTON     PTSUNNY   83  68  60 S13       30.06S
BEAUFORT MCAS  MOSUNNY   84  69  60 S5        30.03F
HILTON HEAD    CLOUDY    88  72  58 SE7       30.05F HX  94

.........CENTRAL SC.........

CITY           SKY/WX    TMP DP  RH WIND       PRES   REMARKS
COLUMBIA       CLOUDY    83  65  54 VRB3      30.02F
ORANGEBURG     CLOUDY    83  65  54 SE10      30.03S
SUMTER SHAW    CLOUDY    81  65  59 SE8       30.03S

.........WESTERN SC.........

CITY           SKY/WX    TMP DP  RH WIND       PRES   REMARKS
GREENVILLE     NOT AVBL
ROCK HILL      PTSUNNY   78  63  59 N3        30.06F
ANDERSON       PTSUNNY   81  61  50 E8        30.03S
CLEMSON        NOT AVBL
GREENWOOD      PTSUNNY   82  66  58 S8        30.04F


...................COASTAL AND OFFSHORE REPORTS..................

................LOCAL PIERS AND NC RESERVE................


STATION/POSITION TIME  SKY/WX   TEMP    WIND        PRES    VSBY
                                AIR SEA DIR/SP/G
                 (UTC)          (F)     (DEG/KT/KT) (MB)    (MI)
JOHNY MRCER PIER 1600            64 70   60/ 13/ 14 1019.1R
NC RESRV MASNBRO NOT AVBL
OCEAN CREST PIER NOT AVBL
SPRINGMAID  PIER 1600            68 71   50/ 17/ 19 1019.1R


................COASTAL AND OFFSHORE BUOYS................


STATION/POSITION TIME  SKY/WX   TEMP    WIND        PRES    VSBY
                                AIR SEA DIR/SP/G
                 (UTC)          (F)     (DEG/KT/KT) (MB)    (MI)
DIMNDSHOAL 41025 1650            60 74   10/ 12/ 16 1020.3R
WVE H/P(F/S)=  5/ 8 SWL H/P/D(F/S/D)=  5/ 40/ 8

CAPE LOOKOUT     1700            62      40/ 13/ 15 1020.4R
ONSLOW BAY 41036 NOT AVBL
ONSLOW BAY 41064 NOT AVBL
ONSLOW BAY 41159 1625               68                N/A
WVE H/P(F/S)=  3/11 SWL H/P/D(F/S/D)=  2/100/11

5SE WRITBC 41038 1608            65 68   80/ 14/ 17 1020.4R
MASNBO INL 41110 1606               68                N/A
WVE H/P(F/S)=  4/ 4

WILM HARBR 41108 1626               68                N/A
WVE H/P(F/S)=  4/ 5

27SE WRITB 41037 1608            66 69   70/ 14/ 19 1018.6F
FRYING PAN 41013 1600            69 70   60/ 16/ 19 1019.0R
SUNST NRSH 41024 1608            67 68  100/ 16/ 21 1018.8R
CAPRS NRSH 41029 1608            72 71   80/ 10/ 12 1017.9R
EDISTO     41004 1650            74 73   90/ 10/ 12 1017.4F
WVE H/P(F/S)=  2/ 8 SWL H/P/D(F/S/D)=  2/ 8



..........OFFSHORE BUOYS BEYOND 100 NM OFFSHORE...........
.....IN A TRIANGLE---HAT TO BERMUDA TO BAHAMAS TO HAT.....


STATION/POSITION TIME  SKY/WX   TEMP    WIND        PRES    VSBY
                                AIR SEA DIR/SP/G
                 (UTC)          (F)     (DEG/KT/KT) (MB)    (MI)
150E HAT   41001 NOT AVBL
W BERMUDA  41048 1650            70 70  300/ 10/ 12 1016.6F
WVE H/P(F/S)=  3/ 8 SWL H/P/D(F/S/D)=  3/ 90/ 8

ATLANTIC S 41049 1650            74 76   60/  8/ 10 1016.6F
WVE H/P(F/S)=  3/ 8 SWL H/P/D(F/S/D)=  3/ 60/ 8

E BAHAMAS  41046 1650            74 80  120/ 14/ 19 1015.3R
WVE H/P(F/S)=  3/ 9 SWL H/P/D(F/S/D)=  3/ 60/ 9

NE BAHAMAS 41047 1650            76 78   60/  6/  8 1016.5F
WVE H/P(F/S)=  3/ 9 SWL H/P/D(F/S/D)=  3/110/ 9

120E CANVRL41010 1620            77 78  150/  8/ 10 1017.0F

END



USA.gov is the U.S. government's official web portal to all federal, state and local government web resources and services.